Regional Weather Roundup
Issued by NWS

Home | Current Version | Previous Version | Graphics & Text | Print | Product List | Glossary On
Versions: 1 2 3 4 5 6 7 8 9 10 11 12 13 14 15 16 17 18 19 20 21 22 23 24 25 26 27 28 29 30 31 32 33 34 35 36 37 38 39 40 41 42 43 44 45 46 47 48 49 50
640
ASUS43 KOAX 191302
RWRNE

WEATHER ROUNDUP FOR NEBRASKA
NATIONAL WEATHER SERVICE OMAHA NE
700 AM CST SUN NOV 19 2017

NOTES: SATELLITE DATA IS BEING USED TO AUGMENT CLOUD COVER ABOVE
       12000 FEET.
       "FAIR" INDICATES FEW OR NO CLOUDS BELOW 12,000 FEET WITH NO
       SIGNIFICANT WEATHER AND/OR OBSTRUCTIONS TO VISIBILITY.


NEZ001>004-019>022-054>056-191400-
NEBRASKA PANHANDLE

CITY           SKY/WX    TMP DP  RH WIND       PRES   REMARKS
SCOTTSBLUFF    CLOUDY    17  10  74 CALM      30.11F
ALLIANCE       CLOUDY    18  12  77 CALM      30.08F
CHADRON        CLOUDY    19  16  88 SW9       30.06F WCI   8
GORDON         FAIR      26  19  72 SW12      30.05S WCI  16
KIMBALL        CLOUDY    24  17  73 SW9       30.12F WCI  14
SIDNEY         CLOUDY    18  13  80 W10       30.13F WCI   6
$$

NEZ057>060-069>072-079>082-191400-
SOUTHWEST NEBRASKA

CITY           SKY/WX    TMP DP  RH WIND       PRES   REMARKS
NORTH PLATTE   CLOUDY    17  13  84 CALM      30.16F
IMPERIAL       CLOUDY    18  13  80 SW3       30.17F
LEXINGTON      CLOUDY    21  17  85 W9        30.18S WCI  11
MCCOOK         CLOUDY    23  19  85 W9        30.20F WCI  13
OGALLALA       CLOUDY    20  16  86 SW6       30.15F WCI  12
$$

NEZ005>010-023>029-035>040-094-191400-
NORTH CENTRAL NEBRASKA

CITY           SKY/WX    TMP DP  RH WIND       PRES   REMARKS
VALENTINE      CLEAR     19  15  84 W6        30.07F WCI  11
AINSWORTH      CLEAR     24  20  85 SW7       30.07F WCI  16
BROKEN BOW     CLEAR     25  18  74 S3        30.12F
O`NEILL        CLEAR     24  21  88 SW5       30.12S WCI  18
ORD            CLEAR     20  17  88 CALM      30.14F
THEDFORD       PTCLDY    26  20  78 W3        30.11S
$$

NEZ041-046>049-061>064-073>077-083>087-191400-
SOUTH CENTRAL NEBRASKA

CITY           SKY/WX    TMP DP  RH WIND       PRES   REMARKS
GRAND ISLAND   CLEAR     26  22  84 SW7       30.17F WCI  18
AURORA         CLEAR     24  20  85 CALM      30.17F
HASTINGS       CLEAR     24  18  77 SW3       30.18F
HEBRON         CLEAR     22  20  90 CALM      30.22S
HOLDREGE       CLEAR     25  20  82 SW5       30.18F WCI  19
KEARNEY        CLEAR     27  21  78 SW7       30.17F WCI  19
$$

NEZ011>018-030>034-042>045-191400-
NORTHEAST NEBRASKA

CITY           SKY/WX    TMP DP  RH WIND       PRES   REMARKS
NORFOLK        CLEAR     20  17  88 S3        30.15R
ALBION         PTCLDY    19  16  86 CALM      30.16S
BLAIR          CLEAR     24  20  83 CALM      30.18R
COLUMBUS       CLEAR     17  15  92 CALM      30.18S
FREMONT        CLEAR     21  19  91 CALM      30.19R
TEKAMAH        CLEAR     17  14  88 S6        30.19R WCI   9
WAYNE          CLEAR     19  16  91 S3        30.15S
$$

NEZ050>053-065>068-078-088>093-191400-
SOUTHEAST NEBRASKA

CITY           SKY/WX    TMP DP  RH WIND       PRES   REMARKS
LINCOLN        CLEAR     22  19  89 S5        30.22S WCI  16
OMAHA EPPLEY   CLEAR     24  18  77 SE5       30.21R WCI  18
BEATRICE       CLEAR     24  22  92 E3        30.22R
FALLS CITY     CLEAR     26  21  81 SW3       30.23S
NEBRASKA CITY  CLEAR     25  24  95 W9        30.21S WCI  15
PLATTSMOUTH    PTCLDY    25  22  87 SW7       30.20S WCI  17
$$

NEZ044-045-051>053-067-191400-
OMAHA AREA

CITY           SKY/WX    TMP DP  RH WIND       PRES   REMARKS
OMAHA EPPLEY   CLEAR     24  18  77 SE5       30.21R WCI  18
BLAIR          CLEAR     24  20  83 CALM      30.18R
FREMONT        CLEAR     21  19  91 CALM      30.19R
MILLARD        CLEAR     25  23  90 CALM      30.21R
OFFUTT AFB     CLEAR     23  19  85 CALM      30.21R
PLATTSMOUTH    PTCLDY    25  22  87 SW7       30.20S WCI  17
WAHOO          FAIR      21  19  89 S5        30.20R WCI  15
$$




USA.gov is the U.S. government's official web portal to all federal, state and local government web resources and services.